Wauseon Fulton County Airport, OH

6:13 PM EDT on July 26, 2017 (GMT -0400)
Fulton County

Weather History for KUSE - February, 2014

Change the Weather History Date:

Saturday, February 1, 2014

  Actual Average (KTOL) Record (KTOL)
Temperature  
Mean Temperature 32 °F -  
Max Temperature 35 °F 33 °F 58 °F (1968)
Min Temperature 28 °F 18 °F -7 °F (1971)
Degree Days  
Heating Degree Days 34    
Moisture  
Dew Point 32 °F    
Average Humidity 99    
Maximum Humidity 100    
Minimum Humidity 93    
Precipitation  
Precipitation 0.00 in - - ()
Sea Level Pressure  
Sea Level Pressure 29.94 in    
Wind  
Wind Speed 6 mph (SSE)    
Max Wind Speed 13 mph    
Max Gust Speed 16 mph    
Visibility 2 miles    
Events Rain , Snow    
Averages and records for this station are not official NWS values.
T = Trace of Precipitation, MM = Missing Value Source: NWS Daily Summary

Daily Weather History Graph

Daily Weather History Graph

Search for Another Location

Airport or City:

Trip Planner

Search our weather history database for the weather conditions in past years. The results will help you decide how hot, cold, wet, or windy it might be!

Date:

Astronomy

Feb. 01, 2014 Rise Set
Actual Time 7:48 AM EST 5:52 PM EST
Civil Twilight 7:19 AM EST 6:21 PM EST
Nautical Twilight 6:45 AM EST 6:54 PM EST
Astronomical Twilight 6:13 AM EST 7:27 PM EST
Moon 8:35 AM EST (2/1) 8:29 PM EST (2/1)
Length of Visible Light 11h 02m
Length of Day
10h 03m
Waxing Crescent, 5% of the Moon is Illuminated
Feb 1
Waxing Crescent
Feb 6
First Quarter
Feb 14
Full
Feb 22
Last Quarter
Mar 1
New

Hourly Weather History & Observations

Time (EST) Temp. Windchill Dew Point Humidity Pressure Visibility Wind Dir Wind Speed Gust Speed Precip Events Conditions
12:15 AM 28.4 °F 23.3 °F 28.4 °F 100% 30.11 in 1.2 mi South 4.6 mph - N/A Snow Light Snow
12:35 AM 28.4 °F - 28.4 °F 100% 30.11 in 1.2 mi Calm Calm - N/A Snow Light Snow
12:55 AM 28.4 °F 24.6 °F 28.4 °F 100% 30.10 in 1.2 mi SE 3.5 mph - N/A Snow Light Snow
1:15 AM 28.4 °F - 28.4 °F 100% 30.09 in 1.0 mi Calm Calm - N/A Snow Light Snow
1:35 AM 28.4 °F 24.6 °F 28.4 °F 100% 30.09 in 1.2 mi SE 3.5 mph - N/A Snow Light Snow
1:55 AM 28.4 °F - 28.4 °F 100% 30.09 in 1.5 mi Calm Calm - N/A Snow Light Snow
2:15 AM 28.4 °F 24.6 °F 28.4 °F 100% 30.09 in 1.5 mi East 3.5 mph - N/A Snow Light Snow
2:35 AM 28.4 °F 23.3 °F 28.4 °F 100% 30.09 in 1.5 mi East 4.6 mph - N/A   Overcast
2:55 AM 28.4 °F 23.3 °F 28.4 °F 100% 30.09 in 1.5 mi ENE 4.6 mph - N/A   Overcast
3:15 AM 28.4 °F - 28.4 °F 100% 30.10 in 1.5 mi Calm Calm - N/A   Overcast
3:35 AM 28.4 °F 22.2 °F 28.4 °F 100% 30.09 in 1.8 mi SE 5.8 mph - N/A   Overcast
3:55 AM 28.4 °F 23.3 °F 28.4 °F 100% 30.07 in 1.5 mi East 4.6 mph - N/A   Overcast
4:15 AM 28.4 °F 23.3 °F 28.4 °F 100% 30.07 in 1.2 mi East 4.6 mph - N/A   Overcast
4:35 AM 28.4 °F 22.2 °F 28.4 °F 100% 30.06 in 1.5 mi ESE 5.8 mph - N/A   Overcast
4:55 AM 28.4 °F 21.2 °F 28.4 °F 100% 30.05 in 1.5 mi East 6.9 mph - N/A   Overcast
5:15 AM 28.4 °F 20.4 °F 28.4 °F 100% 30.04 in 1.8 mi East 8.1 mph - N/A   Overcast
5:35 AM 28.4 °F 21.2 °F 28.4 °F 100% 30.05 in 1.8 mi East 6.9 mph - N/A   Overcast
5:55 AM 28.4 °F 20.4 °F 28.4 °F 100% 30.03 in 1.8 mi ENE 8.1 mph - N/A   Overcast
6:15 AM 28.4 °F 20.4 °F 28.4 °F 100% 30.03 in 1.8 mi East 8.1 mph - N/A   Overcast
6:35 AM 28.4 °F 19.7 °F 28.4 °F 100% 30.01 in 1.5 mi East 9.2 mph - N/A   Overcast
6:55 AM 28.4 °F 20.4 °F 28.4 °F 100% 30.01 in 1.8 mi East 8.1 mph - N/A   Overcast
7:15 AM 28.4 °F 19.7 °F 28.4 °F 100% 30.00 in 2.0 mi ESE 9.2 mph - N/A   Overcast
7:35 AM 30.2 °F 21.3 °F 28.4 °F 93% 29.99 in 2.0 mi ESE 10.4 mph - N/A   Overcast
7:55 AM 30.2 °F 20.8 °F 28.4 °F 93% 29.99 in 0.8 mi ESE 11.5 mph - N/A Snow Light Snow
8:15 AM 30.2 °F 21.9 °F 30.2 °F 100% 29.99 in 0.5 mi ESE 9.2 mph - N/A Snow Light Snow
8:35 AM 30.2 °F 21.9 °F 30.2 °F 100% 29.98 in 0.2 mi ESE 9.2 mph - N/A Snow Light Snow
8:55 AM 30.2 °F 21.9 °F 30.2 °F 100% 29.97 in 0.2 mi ESE 9.2 mph - N/A Snow Light Snow
9:15 AM 30.2 °F 21.9 °F 30.2 °F 100% 29.96 in 0.5 mi ESE 9.2 mph - N/A Snow Light Snow
9:35 AM 30.2 °F 21.9 °F 30.2 °F 100% 29.94 in 0.5 mi ESE 9.2 mph - N/A Snow Light Snow
9:55 AM 32.0 °F 25.6 °F 30.2 °F 93% 29.94 in 0.5 mi ESE 6.9 mph - N/A Snow Light Snow
10:15 AM 32.0 °F 25.6 °F 32.0 °F 100% 29.94 in 1.0 mi ESE 6.9 mph - N/A Snow Light Snow
10:35 AM 32.0 °F 23.0 °F 32.0 °F 100% 29.93 in 1.0 mi SE 11.5 mph - N/A Snow Light Snow
10:55 AM 32.0 °F 23.6 °F 32.0 °F 100% 29.93 in 1.5 mi SE 10.4 mph - N/A Rain Light Rain
11:15 AM 32.0 °F 27.5 °F 32.0 °F 100% 29.94 in 1.2 mi SSE 4.6 mph - N/A Rain Light Rain
11:35 AM 33.8 °F 27.7 °F 32.0 °F 93% 29.92 in 1.2 mi SSE 6.9 mph - N/A   Light Drizzle
11:55 AM 33.8 °F 27.0 °F 32.0 °F 93% 29.90 in 1.0 mi SSE 8.1 mph - N/A   Light Drizzle
12:15 PM 33.8 °F 27.7 °F 33.8 °F 100% 29.87 in 0.8 mi SE 6.9 mph - N/A   Overcast
12:35 PM 33.8 °F 28.6 °F 33.8 °F 100% 29.86 in 0.8 mi SSE 5.8 mph - N/A   Light Drizzle
12:55 PM 33.8 °F 25.3 °F 33.8 °F 100% 29.84 in 1.2 mi South 11.5 mph - N/A Rain Light Rain
1:15 PM 33.8 °F 25.3 °F 33.8 °F 100% 29.81 in 2.0 mi SSE 11.5 mph - N/A Rain Light Rain
1:35 PM 33.8 °F 25.8 °F 33.8 °F 100% 29.81 in 1.8 mi South 10.4 mph - N/A Rain Light Rain
1:55 PM 33.8 °F 25.8 °F 33.8 °F 100% 29.80 in 1.8 mi South 10.4 mph - N/A Rain Light Rain
2:15 PM 33.8 °F 26.4 °F 33.8 °F 100% 29.80 in 1.5 mi South 9.2 mph - N/A   Overcast
2:35 PM 35.6 °F 28.0 °F 33.8 °F 93% 29.80 in 1.5 mi South 10.4 mph - N/A Rain Light Rain
2:55 PM 35.6 °F 28.6 °F 33.8 °F 93% 29.79 in 1.2 mi South 9.2 mph - N/A   Overcast
3:15 PM 35.6 °F 27.5 °F 35.6 °F 100% 29.79 in 1.5 mi SSW 11.5 mph - N/A Rain Light Rain
3:35 PM 35.6 °F 27.1 °F 35.6 °F 100% 29.79 in 2.0 mi SSW 12.7 mph - N/A Rain Light Rain
3:55 PM 35.6 °F 28.6 °F 35.6 °F 100% 29.79 in 1.8 mi SSW 9.2 mph - N/A Rain Light Rain
4:15 PM 35.6 °F 28.6 °F 35.6 °F 100% 29.80 in 2.0 mi SSW 9.2 mph - N/A   Light Drizzle
4:35 PM 35.6 °F 30.7 °F 35.6 °F 100% 29.80 in 2.0 mi SW 5.8 mph - N/A   Light Drizzle
4:55 PM 35.6 °F 29.2 °F 35.6 °F 100% 29.80 in 2.0 mi SW 8.1 mph - N/A   Overcast
5:15 PM 35.6 °F 29.2 °F 35.6 °F 100% 29.81 in 1.8 mi SW 8.1 mph - N/A Rain Light Rain
5:35 PM 35.6 °F 29.9 °F 35.6 °F 100% 29.81 in 1.8 mi SW 6.9 mph - N/A   Light Drizzle
5:55 PM 35.6 °F 30.7 °F 35.6 °F 100% 29.81 in 1.8 mi WSW 5.8 mph - N/A   Light Drizzle
6:15 PM 35.6 °F 29.2 °F 35.6 °F 100% 29.82 in 2.0 mi WSW 8.1 mph - N/A   Light Drizzle
6:35 PM 35.6 °F 29.9 °F 35.6 °F 100% 29.82 in 2.0 mi SW 6.9 mph - N/A Rain Light Rain
6:55 PM 35.6 °F 29.9 °F 35.6 °F 100% 29.84 in 2.0 mi WSW 6.9 mph - N/A Rain Light Rain
7:15 PM 35.6 °F 29.2 °F 35.6 °F 100% 29.85 in 2.0 mi WSW 8.1 mph - N/A Rain Light Rain
7:35 PM 35.6 °F 28.0 °F 35.6 °F 100% 29.86 in 1.5 mi West 10.4 mph - N/A Rain Light Rain
7:55 PM 35.6 °F 28.6 °F 35.6 °F 100% 29.86 in 2.5 mi WNW 9.2 mph - N/A   Light Drizzle
8:15 PM 35.6 °F 28.6 °F 35.6 °F 100% 29.87 in 3.0 mi WNW 9.2 mph - N/A Rain Light Rain
8:35 PM 33.8 °F 26.4 °F 33.8 °F 100% 29.88 in 3.0 mi WNW 9.2 mph - N/A Rain Light Rain
8:55 PM 33.8 °F 27.0 °F 33.8 °F 100% 29.88 in 2.5 mi WNW 8.1 mph - N/A Snow Light Snow
9:15 PM 33.8 °F 25.8 °F 32.0 °F 93% 29.89 in 2.0 mi NW 10.4 mph - N/A Snow Light Snow
9:35 PM 32.0 °F 23.0 °F 32.0 °F 100% 29.90 in 1.5 mi NW 11.5 mph - N/A Snow Light Snow
9:55 PM 32.0 °F 23.6 °F 32.0 °F 100% 29.90 in 1.5 mi NNW 10.4 mph 16.1 mph N/A Snow Light Snow
10:15 PM 32.0 °F 24.2 °F 32.0 °F 100% 29.92 in 3.0 mi NNW 9.2 mph 16.1 mph N/A Snow Light Snow
10:35 PM 32.0 °F 23.6 °F 30.2 °F 93% 29.93 in 3.0 mi NW 10.4 mph - N/A Snow Light Snow
10:55 PM 32.0 °F 24.2 °F 30.2 °F 93% 29.93 in 1.5 mi NW 9.2 mph - N/A Snow Light Snow
11:15 PM 30.2 °F 20.8 °F 28.4 °F 93% 29.94 in 2.0 mi NNW 11.5 mph - N/A Snow Light Snow
11:35 PM 30.2 °F 21.3 °F 28.4 °F 93% 29.94 in 1.8 mi NNW 10.4 mph 16.1 mph N/A Snow Light Snow
11:55 PM 30.2 °F 21.3 °F 28.4 °F 93% 29.96 in 2.0 mi NNW 10.4 mph - N/A Snow Light Snow